Wind_Speed
13 11 13 16 14 11 8 8 8 9 3 3 9 12 8 7 14 11 9 12 16 16 16 23 19 18 25 24 23 24 24 22 25 18 18 17 19 17 18 18 10 16 14 12
11 12 12 14 10 7 8 9 10 13 1 8 11 14 8 4 6 13 13 11 14 16 19 19 22 23 19 29 27 24 26 22 23 18 22 16 22 20 18 20 13 12 13 10
15 9 6 8 9 8 11 10 12 11 9 17 19 16 9 8 3 5 7 14 13 18 20 19 19 23 22 29 30 27 24 26 22 19 20 14 16 18 18 20 18 16 14 13
9 13 9 4 10 11 14 5 3 5 9 10 12 6 7 7 10 13 14 13 13 15 15 20 20 23 25 24 25 26 25 26 25 22 22 21 17 16 18 21 18 17 19 17
9 6 7 7 12 5 11 5 9 11 10 16 19 13 11 8 6 6 7 2 13 15 17 20 21 26 26 28 27 26 26 24 23 24 23 22 20 22 14 20 23 24 21 20
14 5 5 11 4 5 8 12 14 15 14 11 5 6 7 6 6 2 3 3 9 11 15 13 24 27 24 29 29 28 29 27 26 27 27 19 22 21 22 17 17 26 21 22
17 15 13 7 9 8 7 12 10 7 9 4 3 9 11 12 6 4 5 6 4 9 10 13 14 15 23 26 30 30 31 29 28 25 25 23 20 23 22 20 20 16 18 21
8 11 10 12 8 12 14 12 10 14 3 8 15 4 9 11 9 2 8 10 4 6 12 15 13 15 20 21 31 30 32 30 29 28 27 25 24 22 21 22 19 24 23 20
12 7 7 2 5 13 3 7 11 14 11 9 5 8 7 10 7 11 11 11 8 2 4 13 15 17 20 21 28 30 30 30 29 29 27 26 26 25 23 24 25 22 23 23
13 8 8 11 1 9 12 14 9 8 6 12 3 6 2 10 14 15 13 14 13 13 12 13 8 19 20 23 23 27 27 28 27 27 27 27 26 25 26 21 25 26 21 21
12 11 15 9 8 12 9 11 10 10 11 11 9 6 8 6 10 4 11 15 13 12 11 11 11 10 22 20 23 25 25 25 28 28 28 28 27 27 26 22 26 26 24 22
14 9 11 17 19 16 10 11 10 9 14 14 8 6 16 17 10 16 14 12 12 12 12 13 14 25 7 16 19 24 27 27 29 27 28 28 26 27 27 28 23 27 28 25
11 6 7 10 14 8 10 11 6 13 9 11 11 3 17 13 8 10 9 6 10 10 12 14 14 14 20 24 21 11 23 25 28 28 28 27 28 28 28 29 27 27 27 25
5 10 12 11 18 15 15 15 13 13 11 14 15 18 5 3 9 2 11 9 12 10 11 12 11 10 16 20 20 19 11 17 19 27 29 29 30 29 29 28 30 27 29 27
4 10 12 14 16 16 16 16 15 15 15 15 16 18 17 17 12 12 12 7 12 11 12 10 10 9 12 13 17 18 16 17 8 14 25 28 30 30 28 29 30 31 30 30
7 9 11 13 15 16 18 15 12 14 14 15 14 10 14 15 14 14 11 9 10 11 10 10 10 10 12 12 9 13 19 19 14 14 14 16 24 30 30 30 29 31 29 30
9 9 10 13 14 16 11 11 6 8 6 9 8 9 11 10 10 10 10 3 6 6 8 10 10 10 13 15 12 11 15 16 16 16 18 15 16 21 27 29 30 29 31 29
10 9 8 10 12 12 4 1 3 8 7 8 11 11 9 8 9 12 15 7 5 7 8 9 10 11 13 16 15 18 13 19 11 12 13 15 17 18 22 29 31 31 30 31
8 5 8 9 11 13 14 12 8 5 8 13 10 12 12 13 13 14 5 2 8 7 11 13 14 13 11 17 14 15 17 17 12 15 18 16 12 13 16 16 30 33 32 31
6 5 4 9 11 9 8 10 7 7 7 10 9 9 12 13 10 10 5 14 16 18 19 17 18 18 17 18 15 16 13 18 17 12 13 18 26 35 15 14 23 37 35 34
7 6 8 9 11 9 10 8 6 6 5 8 10 12 13 13 11 15 16 15 21 21 21 21 18 18 19 20 18 17 12 15 18 19 17 19 23 22 18 26 28 59 44 32
6 6 8 8 11 11 8 7 2 7 8 11 12 14 16 17 18 18 17 17 16 21 24 23 22 22 19 27 21 18 16 18 15 16 19 20 22 17 24 18 47 72 38 32
3 5 5 4 9 11 7 4 3 8 8 9 13 16 18 19 19 18 18 19 16 23 24 23 23 23 23 23 25 21 20 18 18 18 19 18 21 22 22 25 35 30 28 27
4 4 3 6 5 12 14 12 10 11 10 20 14 16 17 16 17 19 19 18 17 23 24 24 26 22 23 24 25 25 23 22 20 21 21 20 21 22 22 21 24 24 25 26
8 7 7 10 14 8 9 7 9 9 10 18 18 18 18 20 20 19 18 17 17 22 26 26 24 25 26 28 27 28 27 24 22 21 21 21 20 24 22 16 18 21 15 3
6 4 6 9 12 9 11 13 14 17 18 17 17 18 18 17 17 20 19 18 19 22 25 26 26 28 29 28 27 26 26 23 24 22 20 23 23 20 7 9 3 2 4 8
Wind_Direction
213 234 239 248 241 16 4 305 292 290 69 300 273 285 259 244 192 186 210 188 174 181 179 169 195 192 166 168 177 181 180 176 175 180 193 205 184 190 187 205 237 186 199 216
254 225 251 278 325 341 295 283 264 266 145 299 286 285 256 267 239 182 184 226 190 182 171 168 184 184 198 170 181 184 183 181 180 187 196 199 192 189 196 211 206 193 205 221
247 306 44 304 303 281 253 259 281 311 344 283 256 256 171 157 163 165 230 191 211 186 176 170 177 186 189 171 174 181 186 185 190 189 194 208 191 197 193 201 217 214 213 218
264 257 259 235 256 258 261 319 228 315 269 293 303 286 155 148 191 202 212 192 199 186 181 169 174 189 187 183 173 177 183 182 196 197 203 195 196 187 203 203 202 209 209 221
238 230 239 245 259 247 271 15 297 283 280 267 269 232 135 182 182 34 352 173 171 169 175 174 181 183 191 183 178 180 183 186 194 200 205 197 195 208 202 202 211 218 215 217
272 288 227 241 234 242 278 292 279 247 245 270 245 312 127 140 54 14 26 171 130 153 170 182 178 176 185 178 177 180 181 192 195 198 207 200 197 206 214 224 216 212 206 212
214 222 215 213 252 240 240 258 270 236 273 217 117 279 131 135 133 61 129 102 123 130 166 163 169 172 181 181 175 179 181 189 198 201 201 202 205 204 210 213 220 202 216 209
270 172 196 174 228 267 220 262 290 293 327 221 223 229 117 129 145 114 125 103 106 168 162 162 178 179 180 187 178 181 182 188 195 203 204 205 205 203 211 215 218 219 216 227
320 116 127 245 218 246 297 241 314 314 301 289 37 3 263 110 215 148 108 118 121 85 3 164 166 180 182 190 183 185 181 186 192 202 205 206 205 203 207 213 213 220 223 221
311 294 244 155 245 273 270 303 316 300 304 293 291 130 148 317 28 26 97 92 58 48 23 349 190 176 190 189 195 187 177 186 193 205 206 207 207 208 211 215 206 212 224 226
304 305 296 282 199 250 220 234 263 284 317 312 306 96 75 343 87 141 34 55 46 37 23 356 342 197 177 190 189 183 183 193 198 206 210 207 206 209 212 218 210 210 214 219
328 315 302 301 310 311 286 271 287 293 305 295 310 316 105 100 329 54 49 47 41 27 16 13 9 8 17 176 182 187 186 198 197 207 214 207 205 207 209 215 214 213 216 217
356 299 308 287 254 292 266 270 268 296 271 293 299 21 107 59 28 64 75 33 79 41 27 18 20 16 9 3 8 194 185 194 198 200 209 210 208 208 212 209 213 209 210 212
320 276 269 281 309 334 321 318 316 307 296 301 295 309 109 233 231 123 62 12 71 41 36 28 22 18 16 5 358 352 339 202 210 201 205 210 211 211 212 215 209 212 209 211
244 275 291 306 314 313 303 296 292 282 283 280 292 303 328 45 56 62 48 59 52 34 30 26 28 14 21 10 354 354 332 324 293 236 213 214 211 213 216 218 212 208 208 208
271 292 299 281 284 278 276 280 293 288 284 281 286 293 27 39 31 43 32 28 28 26 10 4 10 12 4 359 353 341 333 335 296 288 282 244 221 214 217 217 221 208 211 209
287 299 301 288 304 305 288 281 313 340 348 1 328 67 44 21 9 9 345 33 36 21 357 347 345 1 351 335 338 344 331 319 313 270 265 266 252 230 228 229 221 216 210 210
276 260 272 279 277 266 282 90 51 339 317 344 338 356 28 36 355 348 330 54 7 352 338 328 330 334 336 328 334 334 324 311 291 298 263 252 233 237 242 235 231 222 213 211
293 282 282 280 272 279 296 49 30 40 336 11 0 351 345 342 338 309 127 357 313 328 304 306 312 318 323 304 320 317 317 308 299 279 276 254 258 243 244 280 253 232 221 215
284 278 242 285 298 291 47 73 30 332 259 28 7 333 328 323 300 300 325 327 327 312 302 306 303 305 304 297 302 293 309 309 302 298 285 283 286 249 272 289 279 288 231 218
217 222 265 268 277 282 54 25 319 257 7 339 340 335 321 306 301 307 307 311 310 307 304 302 296 291 297 289 285 283 282 287 299 314 323 313 309 289 304 298 271 284 251 224
274 277 281 290 282 278 43 311 335 354 325 346 337 337 328 327 318 313 307 300 310 306 310 301 291 289 290 291 282 278 276 284 287 303 304 305 303 292 246 218 256 252 232 224
255 272 302 329 324 330 344 305 313 2 322 331 335 322 317 317 309 306 305 300 299 303 306 310 308 299 291 297 307 274 271 275 288 284 286 290 293 286 281 257 252 247 223 221
199 245 244 309 241 326 315 324 10 5 347 317 317 309 303 298 295 297 301 303 302 291 286 286 289 289 298 285 285 286 290 268 271 277 277 282 285 277 272 261 255 245 234 222
301 332 293 290 272 294 287 326 326 314 282 289 321 303 295 303 301 304 294 293 295 302 298 296 291 286 281 282 281 279 277 284 264 269 279 277 279 278 273 274 273 258 240 118
276 340 302 307 342 352 343 337 316 306 314 308 293 304 297 292 291 289 281 288 290 291 288 286 283 282 279 276 276 276 272 267 273 262 270 276 270 278 269 278 263 335 235 255
Height
742 759 761 740 729 732 745 752 756 742 728 743 744 738 728 716 717 722 725 727 733 738 742 751 759 764 769 776 783 787 792 798 804 808 812 813 814 816 816 815 817 821 823 822
750 760 735 725 727 740 747 754 754 735 727 735 738 736 720 712 711 712 719 722 723 729 736 745 754 760 766 773 780 786 790 795 802 807 809 812 812 814 814 814 816 820 821 822
751 739 725 735 742 749 748 753 749 747 735 727 730 736 726 713 709 709 709 709 713 719 728 739 749 755 763 770 776 782 788 793 798 803 805 809 810 812 813 813 814 817 820 823
740 726 733 743 749 742 754 723 731 744 755 767 724 767 736 723 721 712 706 705 706 711 719 730 742 750 757 764 771 778 785 789 794 801 803 805 808 811 812 812 812 814 816 822
742 738 742 751 742 729 746 724 737 739 750 746 730 747 740 721 726 717 705 698 698 703 712 722 732 742 750 758 765 773 780 786 791 795 800 803 806 809 810 810 810 811 812 815
735 717 727 731 724 728 726 736 735 734 741 768 735 738 747 735 727 718 707 700 698 702 707 716 725 735 744 753 760 768 774 782 787 791 796 800 802 804 807 808 809 809 810 811
734 731 721 721 740 725 734 747 768 773 764 783 727 739 730 717 711 707 709 705 702 703 707 715 722 731 739 746 754 762 769 776 782 787 792 795 799 802 803 807 809 809 809 809
743 758 725 716 732 739 736 738 762 786 778 761 726 747 736 704 700 698 698 700 703 704 704 711 720 727 735 742 749 755 762 770 777 782 786 790 794 797 800 802 804 807 807 809
749 745 717 719 717 723 735 748 719 743 729 745 732 743 709 705 705 701 704 704 707 706 705 704 714 723 731 738 744 751 757 765 771 777 782 785 788 791 794 797 800 804 806 807
738 762 718 717 717 718 729 718 755 741 779 782 750 755 765 735 729 718 713 713 714 713 712 711 709 714 724 732 740 747 753 760 766 773 778 781 784 787 790 793 794 798 801 803
737 747 745 720 734 737 731 743 736 733 743 768 768 768 727 738 729 732 733 722 725 726 725 719 714 713 716 725 733 741 749 756 763 768 773 776 779 782 786 789 790 793 796 798
738 748 762 746 714 706 712 727 730 757 767 747 753 757 724 751 737 728 734 732 735 738 734 728 725 723 719 717 727 734 742 749 756 762 768 770 774 777 780 782 785 787 789 792
754 756 772 757 727 716 727 720 722 728 730 757 769 761 729 733 739 735 741 739 738 742 741 739 736 735 733 732 732 730 735 742 748 754 760 764 767 770 773 775 779 781 785 788
759 762 770 780 758 743 752 739 735 741 761 758 753 745 751 735 739 733 743 748 740 749 746 746 747 744 742 741 739 738 739 739 743 747 751 756 759 764 767 770 773 776 779 782
760 774 761 754 749 747 751 751 747 753 750 765 755 753 740 742 741 744 747 751 753 754 752 753 753 753 749 748 746 744 743 741 741 743 745 748 753 757 762 765 767 770 773 775
749 772 764 769 754 750 753 741 742 745 745 747 747 753 744 745 748 755 757 758 759 760 762 760 756 757 755 752 751 750 747 745 743 742 744 745 748 752 757 759 765 766 768 771
763 769 775 783 758 753 767 745 743 741 737 746 764 763 754 761 761 761 759 760 764 765 767 765 761 760 759 756 753 753 751 748 744 742 743 744 745 748 752 755 758 761 763 766
762 769 772 783 769 795 744 730 741 753 749 748 752 750 754 761 760 760 760 762 766 765 766 764 762 761 760 757 755 753 751 747 743 741 740 740 740 742 746 749 751 754 757 759
748 761 776 784 779 760 745 753 757 763 768 754 761 759 760 759 760 764 761 765 764 763 764 761 760 759 758 756 754 752 749 746 742 740 739 738 736 739 739 742 747 749 751 753
753 753 779 781 796 799 764 756 754 757 782 764 767 769 768 765 778 767 762 761 761 761 760 758 758 756 755 753 751 749 746 744 740 738 737 736 734 733 739 733 731 746 744 745
769 774 783 776 781 768 763 763 758 791 790 768 767 769 770 774 769 762 760 759 760 758 756 754 752 752 751 749 746 744 743 742 738 736 734 731 727 726 727 716 721 741 742 739
774 780 778 772 782 790 765 766 783 775 766 767 768 769 769 768 765 762 760 758 757 755 752 749 746 745 744 744 740 737 737 737 735 733 730 729 725 724 724 726 722 715 725 729
784 771 781 781 780 765 760 765 762 767 770 768 771 771 769 767 764 761 759 755 752 751 749 746 744 740 739 738 736 732 731 731 730 730 728 727 724 720 718 714 711 700 713 717
760 757 775 780 768 767 764 761 764 772 773 769 767 767 766 766 764 760 757 751 749 747 744 741 738 735 733 732 731 729 727 724 723 724 724 722 718 716 713 709 706 705 707 708
768 767 773 775 768 766 766 764 767 769 769 765 763 764 761 758 754 753 749 744 742 740 739 737 733 730 727 725 724 723 721 720 716 715 717 716 714 708 704 703 704 705 709 709
761 767 774 775 767 772 772 770 768 767 764 763 760 755 756 755 750 746 740 737 736 735 733 729 726 723 721 718 716 715 714 713 711 709 709 708 706 703 700 702 704 704 703 704